EW1647 Weather Reports


Display with metric or nautical units.
time (UTC)temp
F
wind
direction
speed
MPH
gust
MPH
rain 1hr
in
rain 24hr
in
rain mn
in
humidity
%
barometer
mb
20260508121503 50 207 2.0 6.0 0.00 0.00 0.00 85 1018.3
20260508120100 50 201 2.0 6.0 0.00 0.00 0.00 85 1018.2
20260508114603 50 201 4.0 8.0 0.00 0.00 0.00 85 1018.0
20260508113056 50 198 3.0 7.0 0.00 0.00 0.00 85 1017.9
20260508111555 50 206 1.0 9.0 0.00 0.00 0.00 85 1017.7
20260508110052 50 199 1.0 6.0 0.00 0.00 0.00 86 1017.7
20260508104549 50 199 1.0 4.0 0.00 0.00 0.00 86 1017.5
20260508103052 50 200 2.0 7.0 0.00 0.00 0.00 86 1017.4
20260508101547 50 196 2.0 7.0 0.00 0.00 0.00 87 1017.3
20260508100104 50 220 2.0 4.0 0.00 0.00 0.00 86 1017.2
20260508094551 51 220 1.0 4.0 0.00 0.00 0.00 85 1017.2
20260508093044 51 220 2.0 4.0 0.00 0.00 0.00 86 1017.2
20260508091546 51 221 3.0 8.0 0.00 0.00 0.00 87 1017.2
20260508090107 50 105 2.0 6.0 0.00 0.00 0.00 89 1017.1
20260508084546 50 28 2.0 4.0 0.00 0.00 0.00 89 1017.2
20260508083040 50 13 1.0 2.0 0.00 0.00 0.00 88 1017.0
20260508081553 50 13 1.0 2.0 0.00 0.00 0.00 88 1017.0
20260508080039 50 13 0.0 1.0 0.00 0.00 0.00 87 1016.9
20260508074535 50 13 0.0 2.0 0.00 0.00 0.00 87 1017.0
20260508073042 50 13 0.0 2.0 0.00 0.00 0.00 86 1017.0
20260508071531 51 13 1.0 3.0 0.00 0.00 0.00 85 1017.1
20260508070029 51 14 0.0 3.0 0.00 0.00 0.00 85 1017.2
20260508064531 51 14 0.0 2.0 0.00 0.00 0.00 85 1017.2
20260508063028 52 14 1.0 2.0 0.00 0.00 0.00 83 1017.2
20260508061533 52 14 1.0 3.0 0.00 0.00 0.00 81 1017.1
20260508060027 52 14 1.0 2.0 0.00 0.00 0.00 81 1017.0
20260508054533 52 14 2.0 4.0 0.00 0.00 0.00 81 1017.1
20260508053032 52 11 2.0 3.0 0.00 0.00 0.00 80 1017.2
20260508051525 53 360 2.0 3.0 0.00 0.00 0.00 79 1017.2
20260508050025 54 360 1.0 3.0 0.00 0.00 0.00 78 1017.2
20260508044524 54 360 1.0 3.0 0.00 0.00 0.00 76 1017.3
20260508043023 55 360 1.0 3.0 0.00 0.00 0.00 74 1017.3
20260508041524 56 360 2.0 3.0 0.00 0.00 0.00 73 1017.3
20260508040022 58 355 1.0 2.0 0.00 0.00 0.00 71 1017.3
20260508034536 59 355 1.0 2.0 0.00 0.00 0.00 70 1017.2
20260508033021 60 355 1.0 3.0 0.00 0.00 0.00 71 1017.1
20260508031520 61 355 2.0 3.0 0.00 0.00 0.00 69 1017.2
20260508030020 62 355 0.0 3.0 0.00 0.00 0.00 61 1017.2
20260508024542 62 355 1.0 4.0 0.00 0.00 0.00 61 1017.2
20260508023016 63 347 0.0 1.0 0.00 0.00 0.00 61 1017.4
20260508021521 64 347 0.0 3.0 0.00 0.00 0.00 61 1017.4
20260508020015 65 347 1.0 5.0 0.00 0.00 0.00 64 1017.5
20260508014517 65 342 2.0 3.0 0.00 0.00 0.00 56 1017.5
20260508013015 66 342 0.0 3.0 0.00 0.00 0.00 60 1017.7
20260508011513 67 342 2.0 4.0 0.00 0.00 0.00 57 1017.8
20260508010011 67 341 2.0 3.0 0.00 0.00 0.00 59 1018.0
20260508004516 67 340 2.0 4.0 0.00 0.00 0.00 54 1018.2
20260508003008 66 336 2.0 3.0 0.00 0.00 0.00 60 1018.2
20260508001517 66 334 1.0 4.0 0.00 0.00 0.00 59 1018.4
20260508000004 67 355 2.0 4.0 0.00 0.00 0.00 55 1018.5
20260507234504 66 346 2.0 4.0 0.00 0.00 0.00 56 1018.5
20260507233005 67 319 3.0 5.0 0.00 0.00 0.00 57 1018.5
20260507231501 65 325 3.0 5.0 0.00 0.00 0.00 58 1018.7
20260507230112 65 302 3.0 8.0 0.00 0.00 0.00 60 1018.9
20260507224600 65 292 3.0 7.0 0.00 0.00 0.00 61 1019.0
20260507223056 65 307 3.0 8.0 0.00 0.00 0.00 60 1019.1
20260507221555 65 327 3.0 8.0 0.00 0.00 0.00 61 1019.2
20260507220056 67 300 5.0 8.0 0.00 0.00 0.00 57 1019.4
20260507214550 67 311 4.0 8.0 0.00 0.00 0.00 57 1019.5
20260507213047 66 304 5.0 8.0 0.00 0.00 0.00 61 1019.7
20260507211544 65 310 4.0 8.0 0.00 0.00 0.00 58 1019.8
20260507210050 65 297 3.0 6.0 0.00 0.00 0.00 59 1020.1
20260507204539 64 308 3.0 7.0 0.00 0.00 0.00 60 1020.1
20260507203104 63 321 2.0 6.0 0.00 0.00 0.00 64 1020.4
20260507201534 62 297 3.0 6.0 0.00 0.00 0.00 62 1020.6
20260507200031 63 311 5.0 8.0 0.00 0.00 0.00 62 1020.6
20260507194530 63 304 4.0 8.0 0.00 0.00 0.00 68 1020.7
20260507193025 61 317 6.0 9.0 0.00 0.00 0.00 70 1020.7
20260507191521 60 292 4.0 9.0 0.00 0.00 0.00 72 1020.8
20260507190018 59 288 5.0 9.0 0.00 0.00 0.00 72 1020.9
20260507184520 58 304 3.0 9.0 0.00 0.00 0.00 74 1021.0
20260507183014 58 279 3.0 8.0 0.00 0.00 0.00 74 1021.1
20260507181511 58 256 5.0 9.0 0.00 0.00 0.00 77 1021.2
20260507180012 56 323 3.0 8.0 0.00 0.00 0.00 78 1021.3
20260507174508 55 316 3.0 8.0 0.00 0.00 0.00 79 1021.4
20260507173011 56 307 3.0 10.0 0.00 0.00 0.00 76 1021.4
20260507171503 56 303 5.0 9.0 0.00 0.00 0.00 79 1021.3
20260507170105 54 245 4.0 8.0 0.00 0.00 0.00 81 1021.2
20260507164558 52 314 3.0 8.0 0.00 0.00 0.00 83 1021.3
20260507163054 51 283 4.0 9.0 0.00 0.00 0.00 83 1021.4
20260507161604 51 275 5.0 10.0 0.00 0.00 0.00 82 1021.4
20260507160100 52 272 4.0 9.0 0.00 0.00 0.00 82 1021.4
20260507154550 52 290 4.0 10.0 0.00 0.00 0.00 83 1021.4
20260507153053 52 269 4.0 9.0 0.00 0.00 0.00 82 1021.3
20260507151546 52 261 5.0 8.0 0.00 0.00 0.00 81 1021.4
20260507150045 51 224 3.0 7.0 0.00 0.00 0.00 82 1021.4
20260507144542 51 251 4.0 8.0 0.00 0.00 0.00 84 1021.6
20260507143055 51 221 3.0 5.0 0.00 0.00 0.00 85 1021.6
20260507141550 51 162 2.0 5.0 0.00 0.00 0.00 86 1021.6
20260507140041 50 161 0.0 5.0 0.00 0.00 0.00 85 1021.5
20260507134541 50 161 1.0 6.0 0.00 0.00 0.00 85 1021.4
20260507133107 50 180 3.0 6.0 0.00 0.00 0.00 85 1021.3
20260507131544 50 157 4.0 8.0 0.00 0.00 0.00 84 1021.3
20260507130043 50 174 5.0 8.0 0.00 0.00 0.00 84 1021.2
20260507124534 50 151 3.0 6.0 0.00 0.00 0.00 84 1021.2
20260507123039 50 147 1.0 5.0 0.00 0.00 0.00 85 1021.3